| time (UTC) | temp F | wind direction | speed knots | gust knots | rain 1hr in | rain 24hr in | rain mn in | humidity % | barometer mb |
| 20260504040413 | 47 | 135 | 0.9 | 2.6 | 0.00 | 0.02 | 0.00 | 94 | 1014.8 |
| 20260504040041 | 47 | 0 | 0.0 | 0.9 | 0.00 | 0.89 | 0.00 | 100 | 1015.1 |
| 20260504035913 | 47 | 128 | 1.7 | 2.6 | 0.00 | 0.02 | 0.00 | 94 | 1014.8 |
| 20260504035413 | 47 | 28 | 0.9 | 1.7 | 0.00 | 0.02 | 0.00 | 94 | 1014.8 |
| 20260504034913 | 47 | 178 | 0.0 | 2.6 | 0.00 | 0.02 | 0.00 | 94 | 1014.8 |
| 20260504034538 | 0 | 3.5 | 0.0 | 0.00 | 0.89 | 0.00 | 1015.1 | ||
| 20260504034413 | 47 | 135 | 1.7 | 3.5 | 0.00 | 0.02 | 0.00 | 94 | 1014.7 |
| 20260504033915 | 47 | 216 | 0.9 | 3.5 | 0.00 | 0.02 | 0.00 | 94 | 1014.7 |
| 20260504033413 | 47 | 168 | 0.9 | 2.6 | 0.00 | 0.02 | 0.00 | 94 | 1014.8 |
| 20260504033033 | 47 | 162 | 0.9 | 0.9 | 0.00 | 0.89 | 0.00 | 100 | 1015.1 |
| 20260504032913 | 47 | 161 | 1.7 | 1.7 | 0.00 | 0.02 | 0.00 | 94 | 1014.7 |
| 20260504032412 | 47 | 213 | 0.0 | 1.7 | 0.00 | 0.02 | 0.00 | 94 | 1014.7 |
| 20260504032131 | 47 | 45 | 0.9 | 1.7 | 0.00 | 0.02 | 0.00 | 94 | 1014.8 |
| 20260504031539 | 47 | 162 | 0.9 | 1.7 | 0.00 | 0.89 | 0.00 | 100 | 1015.1 |
| 20260504031412 | 48 | 178 | 0.9 | 3.5 | 0.00 | 0.02 | 0.00 | 94 | 1014.7 |
| 20260504030912 | 48 | 223 | 0.9 | 3.5 | 0.00 | 0.02 | 0.00 | 94 | 1014.7 |
| 20260504030640 | 48 | 157 | 2.6 | 2.6 | 0.00 | 0.02 | 0.00 | 94 | 1014.7 |
| 20260504030040 | 47 | 150 | 1.7 | 1.7 | 0.00 | 0.89 | 0.00 | 100 | 1015.1 |
| 20260504025911 | 47 | 171 | 1.7 | 1.7 | 0.00 | 0.02 | 0.00 | 93 | 1014.7 |
| 20260504025412 | 47 | 234 | 0.9 | 1.7 | 0.00 | 0.02 | 0.00 | 93 | 1014.8 |
| 20260504024911 | 48 | 269 | 0.0 | 2.6 | 0.00 | 0.02 | 0.00 | 93 | 1014.7 |
| 20260504024535 | 47 | 0 | 0.0 | 1.7 | 0.00 | 0.89 | 0.00 | 100 | 1015.2 |
| 20260504024411 | 48 | 241 | 0.9 | 2.6 | 0.00 | 0.02 | 0.00 | 94 | 1014.8 |
| 20260504023912 | 48 | 161 | 1.7 | 2.6 | 0.00 | 0.02 | 0.00 | 93 | 1014.8 |
| 20260504023630 | 48 | 165 | 1.7 | 1.7 | 0.00 | 0.02 | 0.00 | 93 | 1014.8 |
| 20260504023039 | 48 | 0 | 0.0 | 0.9 | 0.00 | 0.89 | 0.00 | 100 | 1015.3 |
| 20260504022911 | 48 | 152 | 0.0 | 1.7 | 0.00 | 0.02 | 0.00 | 93 | 1014.8 |
| 20260504022411 | 48 | 157 | 0.9 | 2.6 | 0.00 | 0.02 | 0.00 | 93 | 1014.8 |
| 20260504021911 | 48 | 142 | 1.7 | 2.6 | 0.00 | 0.02 | 0.00 | 93 | 1014.8 |
| 20260504021537 | 48 | 153 | 0.9 | 1.7 | 0.00 | 0.89 | 0.00 | 100 | 1015.3 |
| 20260504021411 | 48 | 157 | 1.7 | 2.6 | 0.00 | 0.02 | 0.00 | 93 | 1014.9 |
| 20260504020910 | 48 | 152 | 0.9 | 1.7 | 0.00 | 0.02 | 0.00 | 93 | 1014.9 |
| 20260504020411 | 48 | 117 | 0.9 | 1.7 | 0.00 | 0.02 | 0.00 | 93 | 1014.9 |
| 20260504020036 | 48 | 0 | 0.0 | 0.9 | 0.00 | 0.89 | 0.00 | 100 | 1015.3 |
| 20260504015910 | 48 | 152 | 0.0 | 1.7 | 0.00 | 0.02 | 0.00 | 93 | 1014.9 |
| 20260504015636 | 48 | 206 | 0.9 | 2.6 | 0.00 | 0.02 | 0.00 | 93 | 1014.9 |
| 20260504015138 | 48 | 145 | 1.7 | 2.6 | 0.00 | 0.02 | 0.00 | 92 | 1014.9 |
| 20260504014540 | 49 | 0 | 0.0 | 0.9 | 0.00 | 0.89 | 0.00 | 100 | 1015.4 |
| 20260504014411 | 49 | 117 | 0.0 | 1.7 | 0.00 | 0.02 | 0.00 | 92 | 1014.9 |
| 20260504013910 | 49 | 135 | 0.0 | 0.9 | 0.00 | 0.02 | 0.00 | 92 | 1014.9 |
| 20260504013410 | 49 | 145 | 0.9 | 0.9 | 0.00 | 0.02 | 0.00 | 92 | 1015.1 |
| 20260504013041 | 49 | 0 | 0.0 | 0.9 | 0.00 | 0.89 | 0.00 | 100 | 1015.4 |
| 20260504012910 | 49 | 223 | 0.0 | 0.9 | 0.00 | 0.02 | 0.00 | 92 | 1015.1 |
| 20260504012410 | 49 | 1 | 0.0 | 0.9 | 0.00 | 0.02 | 0.00 | 92 | 1015.1 |
| 20260504011910 | 49 | 1 | 0.0 | 0.9 | 0.00 | 0.02 | 0.00 | 92 | 1015.0 |
| 20260504011540 | 49 | 221 | 0.9 | 0.9 | 0.00 | 0.89 | 0.00 | 100 | 1015.5 |
| 20260504011409 | 49 | 161 | 0.9 | 0.9 | 0.00 | 0.02 | 0.00 | 92 | 1015.0 |
| 20260504010908 | 49 | 152 | 0.0 | 0.9 | 0.00 | 0.02 | 0.00 | 92 | 1015.1 |
| 20260504010409 | 49 | 314 | 0.0 | 0.9 | 0.00 | 0.02 | 0.00 | 92 | 1015.1 |
| 20260504010040 | 49 | 0 | 0.0 | 0.9 | 0.00 | 0.89 | 0.00 | 100 | 1015.5 |
| 20260504005906 | 50 | 1 | 0.0 | 1.7 | 0.00 | 0.02 | 0.00 | 92 | 1015.1 |
| 20260504005405 | 50 | 117 | 0.0 | 1.7 | 0.00 | 0.02 | 0.00 | 92 | 1015.1 |
| 20260504004903 | 50 | 178 | 0.0 | 0.9 | 0.00 | 0.02 | 0.00 | 91 | 1015.0 |
| 20260504004538 | 50 | 0.0 | 0.9 | 0.00 | 0.89 | 0.00 | 100 | 1015.6 | |
| 20260504004402 | 50 | 1 | 0.0 | 0.9 | 0.00 | 0.02 | 0.00 | 91 | 1015.1 |
| 20260504003903 | 50 | 89 | 0.0 | 0.9 | 0.00 | 0.02 | 0.00 | 91 | 1015.1 |
| 20260504003402 | 50 | 89 | 0.0 | 0.9 | 0.00 | 0.02 | 0.00 | 91 | 1015.0 |
| 20260504003035 | 50 | 0 | 0.0 | 0.9 | 0.00 | 0.89 | 0.00 | 100 | 1015.5 |
| 20260504002904 | 50 | 178 | 0.0 | 0.9 | 0.00 | 0.02 | 0.00 | 91 | 1015.1 |
| 20260504002402 | 50 | 135 | 0.0 | 0.9 | 0.00 | 0.02 | 0.00 | 91 | 1015.1 |
| 20260504001904 | 51 | 178 | 0.0 | 0.9 | 0.00 | 0.02 | 0.00 | 91 | 1015.1 |
| 20260504001621 | 51 | 135 | 0.0 | 0.9 | 0.00 | 0.02 | 0.00 | 91 | 1015.2 |
| 20260504001543 | 52 | 0 | 0.0 | 0.9 | 0.00 | 0.89 | 0.00 | 100 | 1015.6 |
| 20260504000903 | 51 | 152 | 0.0 | 0.9 | 0.00 | 0.02 | 0.00 | 91 | 1015.2 |
| 20260504000402 | 51 | 178 | 0.0 | 0.9 | 0.00 | 0.02 | 0.00 | 90 | 1015.2 |
| 20260504000036 | 52 | 0 | 0.0 | 0.0 | 0.00 | 0.89 | 0.00 | 100 | 1015.6 |
| 20260503235903 | 51 | 89 | 0.0 | 0.0 | 0.00 | 0.02 | 0.00 | 91 | 1015.1 |
| 20260503235402 | 51 | 45 | 0.0 | 0.9 | 0.00 | 0.02 | 0.00 | 91 | 1015.2 |
| 20260503234903 | 51 | 0 | 0.0 | 0.9 | 0.00 | 0.02 | 0.00 | 90 | 1015.2 |
| 20260503234600 | 52 | 0 | 0.0 | 0.9 | 0.00 | 0.89 | 0.00 | 100 | 1015.6 |
| 20260503234402 | 51 | 117 | 0.0 | 0.9 | 0.00 | 0.02 | 0.00 | 90 | 1015.2 |
| 20260503233903 | 51 | 135 | 0.0 | 0.9 | 0.00 | 0.02 | 0.00 | 90 | 1015.3 |
| 20260503233402 | 51 | 152 | 0.0 | 0.9 | 0.00 | 0.02 | 0.00 | 90 | 1015.2 |
| 20260503233045 | 52 | 137 | 0.0 | 0.9 | 0.00 | 0.89 | 0.00 | 100 | 1015.6 |
| 20260503232903 | 52 | 152 | 0.0 | 0.9 | 0.00 | 0.02 | 0.00 | 89 | 1015.2 |
| 20260503232402 | 52 | 135 | 0.0 | 0.9 | 0.00 | 0.02 | 0.00 | 89 | 1015.2 |
| 20260503231904 | 52 | 161 | 0.0 | 0.9 | 0.00 | 0.02 | 0.00 | 89 | 1015.3 |
| 20260503231536 | 52 | 0 | 0.0 | 0.9 | 0.00 | 0.89 | 0.00 | 100 | 1015.7 |
| 20260503231402 | 52 | 135 | 0.0 | 0.9 | 0.00 | 0.02 | 0.00 | 89 | 1015.3 |
| 20260503231122 | 52 | 135 | 0.0 | 0.9 | 0.00 | 0.02 | 0.00 | 89 | 1015.4 |
| 20260503230402 | 52 | 152 | 0.0 | 0.9 | 0.00 | 0.02 | 0.00 | 89 | 1015.3 |
| 20260503230033 | 52 | 126 | 0.0 | 0.9 | 0.00 | 0.89 | 0.00 | 100 | 1015.8 |
| 20260503225903 | 52 | 178 | 0.0 | 0.9 | 0.00 | 0.02 | 0.00 | 89 | 1015.4 |
| 20260503225620 | 52 | 135 | 0.0 | 0.0 | 0.00 | 0.02 | 0.00 | 89 | 1015.4 |
| 20260503224903 | 53 | 135 | 0.0 | 0.0 | 0.00 | 0.02 | 0.00 | 89 | 1015.4 |
| 20260503224623 | 53 | 135 | 0.0 | 0.9 | 0.00 | 0.02 | 0.00 | 89 | 1015.4 |
| 20260503224542 | 52 | 0 | 0.0 | 0.0 | 0.00 | 0.89 | 0.00 | 100 | 1015.8 |
| 20260503223903 | 53 | 45 | 0.0 | 0.9 | 0.00 | 0.02 | 0.00 | 89 | 1015.3 |
| 20260503223402 | 53 | 178 | 0.0 | 0.9 | 0.00 | 0.02 | 0.00 | 89 | 1015.4 |
| 20260503223040 | 52 | 0 | 0.0 | 0.9 | 0.00 | 0.89 | 0.00 | 100 | 1015.8 |
| 20260503222903 | 53 | 89 | 0.0 | 0.9 | 0.00 | 0.02 | 0.00 | 89 | 1015.4 |
| 20260503222401 | 53 | 161 | 0.0 | 0.9 | 0.00 | 0.02 | 0.00 | 88 | 1015.4 |
| 20260503221903 | 53 | 135 | 0.0 | 0.9 | 0.00 | 0.02 | 0.00 | 88 | 1015.4 |
| 20260503221539 | 52 | 0 | 0.0 | 0.0 | 0.00 | 0.89 | 0.00 | 100 | 1015.8 |
| 20260503221402 | 53 | 135 | 0.0 | 0.9 | 0.00 | 0.02 | 0.00 | 88 | 1015.4 |
| 20260503221126 | 53 | 89 | 0.0 | 0.9 | 0.00 | 0.02 | 0.00 | 88 | 1015.3 |
| 20260503220402 | 53 | 135 | 0.0 | 0.9 | 0.00 | 0.02 | 0.00 | 88 | 1015.4 |
| 20260503220126 | 53 | 135 | 0.0 | 0.9 | 0.00 | 0.02 | 0.02 | 88 | 1015.4 |
| 20260503220039 | 53 | 0 | 0.0 | 0.9 | 0.00 | 0.89 | 0.00 | 100 | 1015.8 |
| 20260503215402 | 53 | 161 | 0.0 | 0.9 | 0.00 | 0.02 | 0.02 | 87 | 1015.3 |
| 20260503215115 | 53 | 314 | 0.0 | 1.7 | 0.00 | 0.02 | 0.02 | 88 | 1015.2 |
| 20260503215054 | 53 | 135 | 0.9 | 1.7 | 0.00 | 0.02 | 0.02 | 87 | 1015.3 |
| 20260503214533 | 53 | 0 | 0.0 | 0.9 | 0.00 | 0.89 | 0.89 | 100 | 1015.7 |
| 20260503213902 | 53 | 135 | 0.0 | 1.7 | 0.00 | 0.02 | 0.02 | 88 | 1015.2 |
| 20260503213402 | 53 | 269 | 0.0 | 1.7 | 0.00 | 0.02 | 0.02 | 88 | 1015.2 |
| 20260503213036 | 53 | 338 | 0.0 | 0.9 | 0.00 | 0.89 | 0.89 | 100 | 1015.7 |
| 20260503212901 | 53 | 269 | 0.9 | 1.7 | 0.00 | 0.02 | 0.02 | 88 | 1015.2 |
| 20260503212402 | 53 | 89 | 0.9 | 1.7 | 0.00 | 0.02 | 0.02 | 88 | 1015.1 |
| 20260503211901 | 54 | 321 | 1.7 | 1.7 | 0.00 | 0.02 | 0.02 | 88 | 1015.2 |
| 20260503211627 | 54 | 331 | 0.9 | 1.7 | 0.00 | 0.02 | 0.02 | 88 | 1015.1 |
| 20260503211535 | 53 | 321 | 0.9 | 1.7 | 0.00 | 0.89 | 0.89 | 100 | 1015.6 |
| 20260503210902 | 54 | 16 | 0.9 | 1.7 | 0.00 | 0.02 | 0.02 | 88 | 1015.1 |
| 20260503210402 | 54 | 331 | 0.9 | 0.9 | 0.00 | 0.02 | 0.02 | 87 | 1015.1 |
| 20260503210032 | 53 | 301 | 0.9 | 1.7 | 0.00 | 0.89 | 0.89 | 100 | 1015.4 |
| 20260503205902 | 54 | 28 | 0.9 | 0.9 | 0.00 | 0.02 | 0.02 | 87 | 1015.0 |
| 20260503205403 | 54 | 306 | 0.0 | 0.9 | 0.00 | 0.02 | 0.02 | 86 | 1014.9 |
| 20260503204902 | 54 | 1 | 0.9 | 1.7 | 0.00 | 0.02 | 0.02 | 86 | 1014.8 |
| 20260503204543 | 54 | 9 | 0.9 | 1.7 | 0.00 | 0.89 | 0.89 | 100 | 1015.2 |
| 20260503204403 | 54 | 324 | 0.9 | 1.7 | 0.00 | 0.02 | 0.02 | 86 | 1014.9 |
| 20260503204333 | 54 | 45 | 0.9 | 1.7 | 0.00 | 0.02 | 0.02 | 86 | 1014.8 |
| 20260503204056 | 54 | 1 | 0.0 | 1.7 | 0.00 | 0.02 | 0.02 | 86 | 1014.8 |
| 20260503203052 | 54 | 0 | 0.0 | 1.7 | 0.00 | 0.89 | 0.89 | 100 | 1015.1 |
| 20260503202902 | 54 | 331 | 0.9 | 1.7 | 0.00 | 0.02 | 0.02 | 86 | 1014.7 |
| 20260503202402 | 55 | 331 | 0.9 | 1.7 | 0.00 | 0.02 | 0.02 | 86 | 1014.7 |
| 20260503201902 | 55 | 178 | 0.0 | 0.9 | 0.00 | 0.02 | 0.02 | 86 | 1014.6 |
| 20260503201624 | 55 | 45 | 0.0 | 0.9 | 0.00 | 0.02 | 0.02 | 85 | 1014.6 |
| 20260503201539 | 54 | 0 | 0.0 | 1.7 | 0.00 | 0.89 | 0.89 | 100 | 1014.9 |
| 20260503201129 | 55 | 45 | 0.0 | 2.6 | 0.00 | 0.02 | 0.02 | 85 | 1014.4 |
| 20260503200359 | 55 | 20 | 0.9 | 2.6 | 0.00 | 0.02 | 0.02 | 85 | 1014.3 |
| 20260503200036 | 55 | 325 | 0.9 | 0.9 | 0.00 | 0.89 | 0.89 | 100 | 1014.7 |
| 20260503195849 | 55 | 269 | 0.9 | 1.7 | 0.00 | 0.02 | 0.02 | 85 | 1014.3 |
| 20260503195558 | 55 | 344 | 0.0 | 1.7 | 0.00 | 0.02 | 0.02 | 85 | 1014.3 |
| 20260503194837 | 55 | 331 | 0.0 | 1.7 | 0.00 | 0.03 | 0.02 | 85 | 1014.3 |
| 20260503194600 | 55 | 320 | 0.9 | 1.7 | 0.00 | 0.03 | 0.02 | 84 | 1014.1 |
| 20260503194537 | 55 | 239 | 0.9 | 1.7 | 0.00 | 0.89 | 0.89 | 100 | 1014.6 |
| 20260503193835 | 55 | 314 | 0.9 | 3.5 | 0.00 | 0.03 | 0.02 | 84 | 1014.0 |
| 20260503193331 | 55 | 331 | 0.9 | 3.5 | 0.00 | 0.04 | 0.02 | 84 | 1014.0 |
| 20260503193056 | 56 | 296 | 0.9 | 2.6 | 0.00 | 0.04 | 0.02 | 84 | 1013.9 |
| 20260503193037 | 55 | 312 | 0.9 | 2.6 | 0.00 | 0.89 | 0.89 | 100 | 1014.3 |
| 20260503192331 | 56 | 320 | 1.7 | 2.6 | 0.00 | 0.06 | 0.02 | 84 | 1013.8 |
| 20260503191830 | 56 | 45 | 0.0 | 1.7 | 0.00 | 0.06 | 0.02 | 84 | 1013.9 |
| 20260503191538 | 55 | 0 | 0.9 | 2.6 | 0.00 | 0.89 | 0.89 | 100 | 1014.3 |
| 20260503191331 | 56 | 341 | 0.9 | 3.5 | 0.00 | 0.06 | 0.02 | 84 | 1013.8 |
| 20260503190830 | 56 | 279 | 0.9 | 3.5 | 0.00 | 0.07 | 0.02 | 83 | 1013.8 |
| 20260503190331 | 56 | 72 | 1.7 | 2.6 | 0.00 | 0.07 | 0.02 | 84 | 1013.6 |
| 20260503190039 | 56 | 0 | 0.9 | 2.6 | 0.00 | 0.89 | 0.89 | 100 | 1014.1 |
| 20260503185803 | 56 | 343 | 1.7 | 2.6 | 0.00 | 0.09 | 0.02 | 84 | 1013.6 |
| 20260503185304 | 56 | 327 | 0.9 | 2.6 | 0.00 | 0.14 | 0.02 | 83 | 1013.6 |
| 20260503184803 | 56 | 331 | 0.9 | 6.1 | 0.00 | 0.20 | 0.02 | 83 | 1013.5 |
| 20260503184749 | 56 | 351 | 2.6 | 6.1 | 0.00 | 0.23 | 0.02 | 83 | 1013.6 |
| 20260503184536 | 56 | 232 | 0.9 | 1.7 | 0.00 | 0.89 | 0.89 | 100 | 1014.1 |
| 20260503183804 | 56 | 329 | 0.9 | 2.6 | 0.00 | 0.25 | 0.02 | 83 | 1013.5 |
| 20260503183302 | 57 | 303 | 0.9 | 2.6 | 0.00 | 0.25 | 0.02 | 83 | 1013.5 |
| 20260503183036 | 56 | 34 | 1.7 | 3.5 | 0.00 | 0.89 | 0.89 | 100 | 1014.1 |
| 20260503182804 | 57 | 341 | 1.7 | 4.3 | 0.00 | 0.25 | 0.02 | 83 | 1013.6 |
| 20260503182304 | 57 | 296 | 1.7 | 5.2 | 0.00 | 0.25 | 0.02 | 82 | 1013.5 |
| 20260503181804 | 57 | 293 | 2.6 | 5.2 | 0.00 | 0.25 | 0.02 | 82 | 1013.5 |
| 20260503181535 | 58 | 316 | 2.6 | 7.0 | 0.00 | 0.89 | 0.89 | 100 | 1014.1 |
| 20260503181302 | 57 | 305 | 3.5 | 5.2 | 0.00 | 0.25 | 0.02 | 81 | 1013.5 |
| 20260503180804 | 57 | 250 | 0.9 | 5.2 | 0.00 | 0.25 | 0.02 | 81 | 1013.6 |
| 20260503180302 | 57 | 348 | 2.6 | 7.8 | 0.00 | 0.25 | 0.02 | 80 | 1013.5 |
| 20260503180045 | 58 | 314 | 0.9 | 3.5 | 0.00 | 0.89 | 0.89 | 99 | 1014.1 |
| 20260503175803 | 57 | 338 | 1.7 | 7.8 | 0.00 | 0.25 | 0.02 | 79 | 1013.4 |
| 20260503175304 | 58 | 331 | 2.6 | 5.2 | 0.00 | 0.25 | 0.02 | 77 | 1013.4 |
| 20260503175022 | 58 | 353 | 2.6 | 7.8 | 0.00 | 0.26 | 0.02 | 76 | 1013.5 |
| 20260503174539 | 58 | 298 | 3.5 | 7.0 | 0.00 | 0.89 | 0.89 | 95 | 1014.1 |
| 20260503174302 | 58 | 341 | 3.5 | 7.8 | 0.00 | 0.26 | 0.02 | 76 | 1013.4 |
| 20260503173803 | 59 | 275 | 3.5 | 7.8 | 0.00 | 0.26 | 0.02 | 77 | 1013.4 |
| 20260503173302 | 59 | 269 | 3.5 | 7.8 | 0.00 | 0.26 | 0.02 | 77 | 1013.3 |
| 20260503173039 | 58 | 336 | 2.6 | 4.3 | 0.89 | 0.89 | 0.89 | 77 | 1013.9 |
| 20260503173033 | 59 | 269 | 2.6 | 6.1 | 0.00 | 0.26 | 0.02 | 77 | 1013.3 |
| 20260503172304 | 59 | 331 | 2.6 | 7.8 | 0.00 | 0.26 | 0.02 | 78 | 1013.3 |
| 20260503171804 | 60 | 331 | 2.6 | 8.7 | 0.00 | 0.27 | 0.02 | 77 | 1013.2 |
| 20260503171543 | 59 | 289 | 3.5 | 4.3 | 0.89 | 0.89 | 0.89 | 96 | 1013.8 |
| 20260503171303 | 60 | 333 | 5.2 | 8.7 | 0.00 | 0.27 | 0.02 | 77 | 1013.3 |
| 20260503170803 | 60 | 329 | 1.7 | 4.3 | 0.00 | 0.28 | 0.02 | 77 | 1013.2 |
| 20260503170519 | 60 | 347 | 2.6 | 4.3 | 0.00 | 0.30 | 0.02 | 77 | 1013.2 |
| 20260503150803 | 58 | 45 | 1.7 | 6.1 | 0.00 | 0.44 | 0.02 | 80 | 1013.2 |
| 20260503150301 | 58 | 300 | 1.7 | 6.1 | 0.00 | 0.44 | 0.02 | 80 | 1013.3 |
| 20260503131302 | 57 | 32 | 1.7 | 2.6 | 0.00 | 0.44 | 0.02 | 93 | 1013.4 |
| 20260503130804 | 57 | 63 | 1.7 | 2.6 | 0.00 | 0.44 | 0.02 | 93 | 1013.5 |
| 20260503130302 | 56 | 66 | 0.9 | 1.7 | 0.00 | 0.44 | 0.02 | 93 | 1013.4 |
| 20260503110302 | 0 | 278 | 1.7 | 1.7 | 0.00 | 0.43 | 0.00 | 1013.8 | |
| 20260503100214 | 0 | 0.0 | 0.0 | 0.00 | 0.43 | 0.00 | 1013.5 | ||
| 20260503090427 | 54 | 314 | 0.9 | 2.6 | 0.00 | 0.43 | 0.00 | 96 | 1013.5 |
| 20260503081537 | 55 | 0 | 0.0 | 0.9 | 0.00 | 0.00 | 0.00 | 100 | 1014.2 |
| 20260503081202 | 53 | 1 | 0.9 | 1.7 | 0.00 | 0.43 | 0.00 | 96 | 1013.6 |
| 20260503080703 | 53 | 54 | 0.9 | 2.6 | 0.00 | 0.43 | 0.00 | 96 | 1013.6 |
| 20260503080201 | 54 | 348 | 0.9 | 2.6 | 0.00 | 0.43 | 0.00 | 96 | 1013.6 |
| 20260503072703 | 54 | 206 | 0.9 | 1.7 | 0.00 | 0.43 | 0.00 | 95 | 1013.4 |
| 20260503072202 | 54 | 223 | 0.9 | 1.7 | 0.00 | 0.43 | 0.00 | 95 | 1013.4 |
| 20260503071703 | 54 | 216 | 0.9 | 1.7 | 0.00 | 0.43 | 0.00 | 95 | 1013.3 |
| 20260503071548 | 55 | 221 | 0.0 | 0.9 | 0.00 | 0.00 | 0.00 | 100 | 1013.9 |
| 20260503071203 | 54 | 45 | 0.9 | 0.9 | 0.00 | 0.43 | 0.00 | 95 | 1013.3 |
| 20260503070703 | 54 | 223 | 0.9 | 1.7 | 0.00 | 0.43 | 0.00 | 95 | 1013.3 |
| 20260503070201 | 54 | 45 | 0.9 | 1.7 | 0.00 | 0.43 | 0.00 | 95 | 1013.2 |
| 20260503060202 | 53 | 178 | 0.0 | 0.9 | 0.00 | 0.43 | 0.00 | 95 | 1012.9 |
| 20260503054704 | 53 | 223 | 0.0 | 0.9 | 0.00 | 0.43 | 0.00 | 95 | 1012.9 |
| 20260503054553 | 55 | 0 | 0.0 | 0.9 | 0.00 | 0.00 | 0.00 | 100 | 1013.4 |
| 20260503054202 | 53 | 45 | 0.0 | 0.9 | 0.00 | 0.43 | 0.00 | 95 | 1012.8 |
| 20260503053703 | 53 | 89 | 0.0 | 1.7 | 0.00 | 0.43 | 0.00 | 95 | 1012.7 |
| 20260503053203 | 53 | 152 | 0.9 | 1.7 | 0.00 | 0.43 | 0.00 | 95 | 1012.8 |
| 20260503053039 | 55 | 162 | 0.0 | 0.9 | 0.00 | 0.00 | 0.00 | 100 | 1013.3 |
| 20260503052703 | 53 | 63 | 0.0 | 1.7 | 0.00 | 0.43 | 0.00 | 95 | 1012.8 |
| 20260503052202 | 53 | 145 | 0.9 | 0.9 | 0.00 | 0.43 | 0.00 | 95 | 1012.8 |
| 20260503051704 | 53 | 178 | 0.0 | 0.9 | 0.00 | 0.43 | 0.00 | 95 | 1012.7 |
| 20260503051540 | 55 | 0 | 0.0 | 0.9 | 0.00 | 0.00 | 0.00 | 100 | 1013.3 |
| 20260503051202 | 53 | 223 | 0.0 | 0.9 | 0.00 | 0.43 | 0.00 | 95 | 1012.7 |
| 20260503050704 | 53 | 178 | 0.0 | 0.9 | 0.00 | 0.43 | 0.00 | 95 | 1012.7 |
| 20260503050202 | 53 | 206 | 0.0 | 0.9 | 0.00 | 0.43 | 0.00 | 95 | 1012.8 |
| 20260503050040 | 55 | 153 | 0.0 | 0.9 | 0.00 | 0.00 | 0.00 | 100 | 1013.3 |
| 20260503045703 | 53 | 178 | 0.9 | 0.9 | 0.00 | 0.43 | 0.00 | 95 | 1012.7 |
| 20260503045202 | 53 | 178 | 0.0 | 0.9 | 0.00 | 0.43 | 0.00 | 95 | 1012.7 |
| 20260503044704 | 53 | 45 | 0.0 | 0.9 | 0.00 | 0.43 | 0.00 | 95 | 1012.7 |
| 20260503044534 | 55 | 0 | 0.0 | 0.9 | 0.00 | 0.00 | 0.00 | 100 | 1013.2 |
| 20260503044202 | 54 | 206 | 0.0 | 0.9 | 0.00 | 0.43 | 0.00 | 95 | 1012.7 |
| 20260503043703 | 54 | 178 | 0.0 | 0.9 | 0.00 | 0.43 | 0.00 | 95 | 1012.7 |
| 20260503043201 | 54 | 178 | 0.0 | 0.9 | 0.00 | 0.43 | 0.00 | 95 | 1012.7 |
| 20260503043035 | 55 | 0 | 0.0 | 0.9 | 0.00 | 0.00 | 0.00 | 100 | 1013.3 |
| 20260503042704 | 54 | 178 | 0.0 | 0.9 | 0.00 | 0.43 | 0.00 | 95 | 1012.8 |
| 20260503042202 | 54 | 223 | 0.0 | 0.9 | 0.00 | 0.43 | 0.00 | 95 | 1012.7 |
| 20260503041926 | 54 | 152 | 0.9 | 0.9 | 0.00 | 0.43 | 0.00 | 95 | 1012.7 |
| 20260503041539 | 55 | 153 | 0.0 | 0.9 | 0.00 | 0.00 | 0.00 | 100 | 1013.3 |
| 20260503041202 | 54 | 178 | 0.0 | 0.9 | 0.00 | 0.43 | 0.00 | 95 | 1012.8 |
| 20260503040703 | 54 | 178 | 0.9 | 0.9 | 0.00 | 0.43 | 0.00 | 95 | 1012.8 |